ARIANE 2 DEB, 40788

Orbit data source: Space-Track

ARIANE 2 DEB, 40788 is space debris in HEO originally from a launch on Fri, 27 Jan 1989 UTC launched from the French Guiana (FRGUI). Debris objects in space refer to the collection of defunct objects orbiting the Earth. Examples of debris include non-operational satellites, rocket bodies, and fragments generated from explosions, collisions, or faulty payload assembly.

Loading next visibility...
Identifier
40788, 1989-006CH
Orbit
HEO
Country
Flag of FRFR
Related business
Manufacturer
EADS/LV
Mission
Spacecraft
Bus & Motor
Unknown
Mass
Unknown
Launch date (UTC)
1989-01-27 (37 years ago)
Launch vehicle
Unknown
Launch site
French Guiana (FRGUI)
Object type
Payload
Rocket body
Debris
Shape & HBR
Unknown shape, 0.2 m
Radar Cross Section
Small (<0.1 m²)

Expand to show TLE details & history
Last TLE update: 18 hours ago

TLE from 18 hours ago
0 ARIANE 2 DEB
1 40788U 89006CH  25286.79984015  .00010408  00000-0  97567-2 0  9995
2 40788   8.6897  30.8256 6299964 143.1915 283.8523  3.52240160135104
Epoch: 2025-10-13T19:11Z
TLE epoch observation values (Epoch: 2025-10-13T19:11:46.188Z)
Latitude
0.00001°
Longitude
80.29797°
Altitude
15,825.849 km
Speed
3.749 km/s
True Right ascension
02h 03m 21s
True Declination
0° 00' 00"
Sunlit
Object was in full shadow at epoch
Visualization orbit readout
Latitude
Unknown
Longitude
Unknown
Altitude
Unknown
Speed
Unknown
Apparent Right ascension
Unknown
Apparent Declination
Unknown
Sunlit
N/A
Visualization observer readout
Local Sidereal Time
08:11:25
Azimuth
Unknown
Elevation
Unknown
Doppler factor
Unknown
Orbital elements
Apogee altitude
23,371.475 km
Perigee altitude
374.923 km
Semi-major axis
18,251.336 km
Eccentricity
0.63
Inclination
8.6897°
RAAN
30.8256°
Arg. of periapsis
143.1915°
True anomaly
216.86303°
Mean anomaly
283.8523°
Eccentric anomaly
249.94491°
Mean motion
0.88024 °/min
Orbital period
408.98 mins
BSTAR
0.0097567
Loading maneuver chart data...
Computing Atmospheric mass density...
Loading historical data...
Loading historical data...
Loading historical data...
Loading historical data...
Loading historical data...
Loading historical data...
Loading historical data...

Documentation

Showing up to 5 results
|